Simultaneous Nadir Overpasses (SNOs) Predictions

Prediction of SNOs between GOES-16 and METOP-B Satellite Orbit:

Table of predicted SNOs for the next 14.0 days since TLE Epoch: 12/31/2022
Index Date Time (GOES-16) GOES-16 Lat,Lon METOP-B Lat,Lon Distance(km) Time Diff (sec)
1 12/31/2022 14:17:54 -0.03, -75.20 -0.66, -72.33 326.08 80
2 01/02/2023 02:39:34 0.03, -75.19 -0.38, -76.92 198.51 80
3 01/03/2023 02:16:16 0.03, -75.19 0.79, -71.94 371.06 80
4 01/04/2023 14:37:47 -0.03, -75.22 0.26, -76.50 145.66 80
5 01/05/2023 14:14:27 -0.03, -75.23 -0.85, -71.50 424.27 80
6 01/07/2023 02:36:08 0.03, -75.22 -0.17, -76.09 99.45 80
7 01/08/2023 02:12:48 0.03, -75.23 0.94, -71.10 470.82 80
8 01/09/2023 14:34:20 -0.02, -75.27 0.09, -75.66 44.86 80
9 01/12/2023 02:31:27 0.02, -75.29 0.01, -75.26 4.43 7
